Starlink 5675

operational
NORAD ID: 55340 Int'l Des: 2023-013 Owner: SPXS Country: US Constellation: starlink
LEOCIRCULAR

关于 Starlink 5675

正在加载描述...

实时位置

正在加载3D地球...

即将过境

高度历史

Altitude vs Time

uPlot chart will show altitude changes over time

两行轨道根数

1 55340U 23013K 26033.35412785 .00000273 00000-0 35253-4 0 9999
2 55340 43.0029 132.3733 0001373 264.0682 96.0004 15.02536201166390
Epoch: Feb 2, 2026 • Age: 20 hours

当前状态

高度 570.7 km
速度 7.58 km/s
星下点 -41.16°S, 148.1°W
发射日期 Jan 26, 2023
运行时间 3 years
类型 internet

技术详情

分类 Payload
质量 305.00 kg
干质量 290.00 kg
总质量 305.00 kg
长度 0.20 m
直径 2.80 m
跨度 9.00 m
形状 Box + pan
制造商 SPXS
平台类型 Starlink
阶段状态 In Orbit
所有者/国家 SPXS/US

大型星座

Loading constellations...